This is the latest recevied weather packets stored in our database for station/object IK2ILW-4. If no packets are shown the sender has not sent any weather packets the latest 10 day(s).
| Time | Temp. | Humidity | Pressure | Rain* | Wind** | Luminosity | Snow |
|---|---|---|---|---|---|---|---|
| 1787571468 | 20° C | 72% | 1023.3 hPa | 0 mm | - | 258 W/m² | - |
| 1787571156 | 20° C | 73% | 1023.3 hPa | 0 mm | - | 246 W/m² | - |
| 1787570853 | 20° C | 74% | 1023.2 hPa | 0 mm | - | 923 W/m² | - |
| 1787570571 | 19.44° C | 75% | 1023.2 hPa | 0 mm | - | 478 W/m² | - |
| 1787570257 | 20° C | 72% | 1023.2 hPa | 0 mm | - | 279 W/m² | - |
| 1787569972 | 20° C | 71% | 1023.4 hPa | 0 mm | - | 229 W/m² | - |
| 1787569667 | 20.56° C | 72% | 1023.4 hPa | 0 mm | - | 221 W/m² | - |
| 1787569372 | 20.56° C | 70% | 1023.4 hPa | 0 mm | - | 292 W/m² | - |
| 1787569056 | 20.56° C | 70% | 1023.3 hPa | 0 mm | - | 322 W/m² | - |
| 1787568768 | 20.56° C | 70% | 1023.3 hPa | 0 mm | - | 940 W/m² | - |
| 1787568458 | 20.56° C | 70% | 1023.3 hPa | 0 mm | - | 316 W/m² | - |
| 1787568171 | 20.56° C | 73% | 1023.3 hPa | 0 mm | - | 835 W/m² | - |
| 1787567865 | 20.56° C | 71% | 1023.3 hPa | 0 mm | - | 898 W/m² | - |
| 1787567555 | 21.11° C | 70% | 1023.3 hPa | 0 mm | - | 895 W/m² | - |
| 1787567271 | 20.56° C | 71% | 1023.4 hPa | 0 mm | - | 895 W/m² | - |
| 1787566965 | 20.56° C | 70% | 1023.4 hPa | 0 mm | - | 791 W/m² | - |
| 1787566653 | 20.56° C | 71% | 1023.4 hPa | 0 mm | - | 784 W/m² | - |
| 1787566366 | 20.56° C | 70% | 1023.4 hPa | 0 mm | - | 288 W/m² | - |
| 1787566062 | 20.56° C | 71% | 1023.4 hPa | 0 mm | - | 795 W/m² | - |
| 1787565760 | 20.56° C | 70% | 1023.4 hPa | 0 mm | - | 867 W/m² | - |
| 1787565457 | 20.56° C | 71% | 1023.4 hPa | 0 mm | - | 817 W/m² | - |
| 1787565154 | 20.56° C | 71% | 1023.4 hPa | 0 mm | - | 795 W/m² | - |
| 1787564864 | 20.56° C | 73% | 1023.4 hPa | 0 mm | - | 784 W/m² | - |
| 1787564559 | 20° C | 71% | 1023.5 hPa | 0 mm | - | 782 W/m² | - |
| 1787564259 | 20° C | 71% | 1023.5 hPa | 0 mm | - | 784 W/m² | - |
* Rain since midnight (hover to see other rain measurements)
** Current wind speed in m/s (hover to see current wind gust speed)